Time,TemperatureF,DewpointF,PressureIn,WindDirection,WindDirectionDegrees,WindSpeedMPH,WindSpeedGustMPH,Humidity,HourlyPrecipIn,Conditions,Clouds,dailyrainin,SoftwareType,DateUTC
2013-06-17 00:01:00,71.1,64.6,30.12,SE,135,0.0,0.0,80,0.00,,,0.00,pywws,2013-06-17 04:01:00,
2013-06-17 00:02:00,71.1,64.9,30.12,SE,135,0.0,0.0,81,0.00,,,0.00,pywws,2013-06-17 04:02:00,
2013-06-17 00:09:00,70.9,64.7,30.12,SE,135,0.0,0.0,81,0.00,,,0.00,pywws,2013-06-17 04:09:00,
2013-06-17 00:12:00,70.7,64.9,30.12,SE,135,0.0,0.0,82,0.00,,,0.00,pywws,2013-06-17 04:12:00,
2013-06-17 00:18:00,70.3,64.6,30.12,South,180,0.7,1.6,82,0.00,,,0.00,pywws,2013-06-17 04:18:00,
2013-06-17 00:23:00,70.2,64.7,30.13,SW,225,0.7,1.6,83,0.00,,,0.00,pywws,2013-06-17 04:23:00,
2013-06-17 00:29:00,70.2,64.7,30.12,SW,225,0.7,1.6,83,0.00,,,0.00,pywws,2013-06-17 04:29:00,
2013-06-17 00:35:00,70.2,64.7,30.12,East,90,0.0,0.0,83,0.00,,,0.00,pywws,2013-06-17 04:35:00,
2013-06-17 00:40:00,70.2,64.4,30.12,South,180,0.0,0.7,82,0.00,,,0.00,pywws,2013-06-17 04:40:00,
2013-06-17 00:51:00,70.3,64.6,30.12,East,90,0.0,0.0,82,0.00,,,0.00,pywws,2013-06-17 04:51:00,
2013-06-17 00:56:00,70.3,64.9,30.12,SW,225,0.7,0.7,83,0.00,,,0.00,pywws,2013-06-17 04:56:00,
2013-06-17 01:11:00,70.3,64.6,30.12,South,180,0.7,1.6,82,0.00,,,0.00,pywws,2013-06-17 05:11:00,
2013-06-17 01:17:00,70.3,64.6,30.12,South,180,0.0,0.7,82,0.00,,,0.00,pywws,2013-06-17 05:17:00,
2013-06-17 01:23:00,70.3,64.9,30.12,SE,135,0.0,0.7,83,0.00,,,0.00,pywws,2013-06-17 05:23:00,
2013-06-17 01:28:00,70.3,64.9,30.12,East,90,0.0,0.7,83,0.00,,,0.00,pywws,2013-06-17 05:28:00,
2013-06-17 01:34:00,70.3,64.9,30.12,East,90,0.7,1.6,83,0.00,,,0.00,pywws,2013-06-17 05:34:00,
2013-06-17 01:39:00,70.2,65.1,30.12,East,90,0.0,0.0,84,0.00,,,0.00,pywws,2013-06-17 05:39:00,
2013-06-17 01:45:00,70.0,64.9,30.12,South,180,0.0,0.0,84,0.00,,,0.00,pywws,2013-06-17 05:45:00,
2013-06-17 01:51:00,70.0,64.9,30.12,SE,135,0.0,0.7,84,0.00,,,0.00,pywws,2013-06-17 05:51:00,
2013-06-17 01:57:00,70.0,64.9,30.12,SW,225,0.0,0.0,84,0.00,,,0.00,pywws,2013-06-17 05:57:00,
2013-06-17 02:03:00,70.0,64.6,30.11,SW,225,0.0,0.0,83,0.00,,,0.00,pywws,2013-06-17 06:03:00,
2013-06-17 02:09:00,70.3,64.9,30.11,East,90,0.0,0.0,83,0.00,,,0.00,pywws,2013-06-17 06:09:00,
2013-06-17 02:15:00,70.2,65.1,30.11,North,0,0.0,0.0,84,0.00,,,0.00,pywws,2013-06-17 06:15:00,
2013-06-17 02:20:00,69.8,65.1,30.11,East,90,0.0,0.7,85,0.00,,,0.00,pywws,2013-06-17 06:20:00,
2013-06-17 02:27:00,69.6,65.2,30.11,South,180,0.0,0.0,86,0.00,,,0.00,pywws,2013-06-17 06:27:00,
2013-06-17 02:32:00,69.6,65.6,30.12,North,0,0.0,0.0,87,0.00,,,0.00,pywws,2013-06-17 06:32:00,
2013-06-17 02:39:00,69.4,65.4,30.12,SE,135,0.0,0.0,87,0.00,,,0.00,pywws,2013-06-17 06:39:00,
2013-06-17 02:45:00,69.3,65.5,30.12,East,90,0.0,1.6,88,0.00,,,0.00,pywws,2013-06-17 06:45:00,
2013-06-17 02:51:00,69.1,65.4,30.12,South,180,0.0,0.0,88,0.00,,,0.00,pywws,2013-06-17 06:51:00,
2013-06-17 02:57:00,69.1,65.4,30.12,South,180,0.0,0.0,88,0.00,,,0.00,pywws,2013-06-17 06:57:00,
2013-06-17 03:03:00,68.9,65.5,30.12,West,270,0.0,0.0,89,0.00,,,0.00,pywws,2013-06-17 07:03:00,
2013-06-17 03:09:00,68.9,65.5,30.12,SE,135,0.0,0.7,89,0.00,,,0.00,pywws,2013-06-17 07:09:00,
2013-06-17 03:15:00,68.7,65.3,30.13,SE,135,0.0,1.6,89,0.00,,,0.00,pywws,2013-06-17 07:15:00,
2013-06-17 03:20:00,68.7,66.0,30.12,NE,45,0.0,0.7,91,0.01,,,0.01,pywws,2013-06-17 07:20:00,
2013-06-17 03:26:00,68.4,65.9,30.12,NE,45,0.0,0.0,92,0.02,,,0.02,pywws,2013-06-17 07:26:00,
2013-06-17 03:33:00,68.2,66.1,30.12,NE,45,0.0,0.0,93,0.04,,,0.04,pywws,2013-06-17 07:33:00,
2013-06-17 03:41:00,67.8,66.3,30.12,NE,45,0.0,0.0,95,0.04,,,0.04,pywws,2013-06-17 07:41:00,
2013-06-17 03:47:00,67.5,66.0,30.11,NE,45,0.0,0.0,95,0.04,,,0.04,pywws,2013-06-17 07:47:00,
2013-06-17 03:53:00,67.3,65.8,30.11,SE,135,0.0,0.0,95,0.04,,,0.04,pywws,2013-06-17 07:53:00,
2013-06-17 03:59:00,67.3,65.8,30.11,SE,135,0.0,0.0,95,0.04,,,0.04,pywws,2013-06-17 07:59:00,
2013-06-17 04:05:00,67.3,65.8,30.11,SE,135,0.0,0.0,95,0.04,,,0.04,pywws,2013-06-17 08:05:00,
2013-06-17 04:11:00,67.5,65.7,30.11,South,180,0.7,1.6,94,0.04,,,0.04,pywws,2013-06-17 08:11:00,
2013-06-17 04:16:00,67.5,65.7,30.11,South,180,0.0,0.7,94,0.02,,,0.04,pywws,2013-06-17 08:16:00,
2013-06-17 04:23:00,67.5,65.7,30.11,SW,225,0.7,1.6,94,0.02,,,0.04,pywws,2013-06-17 08:23:00,
2013-06-17 04:28:00,67.5,66.0,30.11,South,180,0.0,0.7,95,0.00,,,0.04,pywws,2013-06-17 08:28:00,
2013-06-17 04:38:00,67.5,65.7,30.11,South,180,0.0,0.0,94,0.00,,,0.04,pywws,2013-06-17 08:38:00,
2013-06-17 04:44:00,67.3,65.5,30.11,South,180,0.0,0.0,94,0.00,,,0.04,pywws,2013-06-17 08:44:00,
2013-06-17 04:50:00,67.3,65.5,30.11,SW,225,0.0,0.7,94,0.00,,,0.04,pywws,2013-06-17 08:50:00,
2013-06-17 04:56:00,67.3,65.5,30.11,SW,225,0.0,0.0,94,0.00,,,0.04,pywws,2013-06-17 08:56:00,
2013-06-17 05:09:00,67.1,65.6,30.11,SW,225,0.0,0.0,95,0.00,,,0.04,pywws,2013-06-17 09:09:00,
2013-06-17 05:15:00,67.1,65.9,30.11,SW,225,0.0,0.0,96,0.00,,,0.04,pywws,2013-06-17 09:15:00,
2013-06-17 05:21:00,67.1,65.9,30.11,East,90,0.0,0.0,96,0.00,,,0.04,pywws,2013-06-17 09:21:00,
2013-06-17 05:27:00,67.1,65.9,30.10,East,90,0.0,0.0,96,0.00,,,0.04,pywws,2013-06-17 09:27:00,
2013-06-17 05:32:00,66.9,66.0,30.10,East,90,0.0,0.0,97,0.00,,,0.04,pywws,2013-06-17 09:32:00,
2013-06-17 05:38:00,66.7,65.9,30.10,West,270,0.0,0.7,97,0.00,,,0.04,pywws,2013-06-17 09:38:00,
2013-06-17 05:44:00,66.6,65.7,30.10,NE,45,0.0,0.0,97,0.00,,,0.04,pywws,2013-06-17 09:44:00,
2013-06-17 05:51:00,66.2,65.3,30.11,SW,225,0.0,0.0,97,0.00,,,0.04,pywws,2013-06-17 09:51:00,
2013-06-17 05:57:00,65.8,65.3,30.10,SW,225,0.0,0.7,98,0.00,,,0.04,pywws,2013-06-17 09:57:00,
2013-06-17 06:04:00,65.8,65.3,30.10,SW,225,0.0,0.7,98,0.00,,,0.04,pywws,2013-06-17 10:04:00,
2013-06-17 06:10:00,65.8,65.3,30.11,SW,225,0.0,0.0,98,0.00,,,0.04,pywws,2013-06-17 10:10:00,
2013-06-17 06:15:00,65.8,65.3,30.11,SW,225,0.0,0.0,98,0.00,,,0.04,pywws,2013-06-17 10:15:00,
2013-06-17 06:21:00,65.8,65.3,30.11,SW,225,0.0,0.0,98,0.00,,,0.04,pywws,2013-06-17 10:21:00,
2013-06-17 06:27:00,65.8,65.3,30.10,NE,45,0.0,0.0,98,0.00,,,0.04,pywws,2013-06-17 10:27:00,
2013-06-17 06:33:00,65.5,64.9,30.11,NE,45,0.0,0.0,98,0.00,,,0.04,pywws,2013-06-17 10:33:00,
2013-06-17 06:40:00,65.5,64.9,30.10,SW,225,0.0,0.0,98,0.00,,,0.04,pywws,2013-06-17 10:40:00,
2013-06-17 06:46:00,65.8,65.3,30.10,SW,225,0.0,0.0,98,0.00,,,0.04,pywws,2013-06-17 10:46:00,
2013-06-17 06:51:00,65.8,65.3,30.11,SW,225,0.0,0.0,98,0.00,,,0.04,pywws,2013-06-17 10:51:00,
2013-06-17 06:58:00,66.0,65.7,30.11,SW,225,0.0,0.0,99,0.00,,,0.04,pywws,2013-06-17 10:58:00,
2013-06-17 07:03:00,66.4,65.8,30.10,SW,225,0.0,0.0,98,0.00,,,0.04,pywws,2013-06-17 11:03:00,
2013-06-17 07:09:00,66.6,66.0,30.10,SW,225,0.0,0.0,98,0.00,,,0.04,pywws,2013-06-17 11:09:00,
2013-06-17 07:15:00,67.1,66.5,30.10,SW,225,0.0,0.0,98,0.00,,,0.04,pywws,2013-06-17 11:15:00,
2013-06-17 07:21:00,67.6,67.1,30.10,SW,225,0.0,0.0,98,0.00,,,0.04,pywws,2013-06-17 11:21:00,
2013-06-17 07:27:00,68.0,67.1,30.11,South,180,0.0,0.0,97,0.00,,,0.04,pywws,2013-06-17 11:27:00,
2013-06-17 07:32:00,68.2,67.3,30.11,South,180,0.0,0.0,97,0.00,,,0.04,pywws,2013-06-17 11:32:00,
2013-06-17 07:38:00,68.5,67.7,30.11,South,180,0.0,0.0,97,0.00,,,0.04,pywws,2013-06-17 11:38:00,
2013-06-17 07:43:00,68.7,67.8,30.11,SW,225,0.0,0.7,97,0.00,,,0.04,pywws,2013-06-17 11:43:00,
2013-06-17 07:49:00,68.7,67.8,30.11,SE,135,0.0,0.7,97,0.00,,,0.04,pywws,2013-06-17 11:49:00,
2013-06-17 07:55:00,68.9,67.7,30.11,East,90,0.0,0.0,96,0.00,,,0.04,pywws,2013-06-17 11:55:00,
2013-06-17 08:00:00,68.9,67.7,30.11,East,90,0.0,0.0,96,0.00,,,0.04,pywws,2013-06-17 12:00:00,
2013-06-17 08:06:00,68.9,67.7,30.11,East,90,0.0,0.0,96,0.00,,,0.04,pywws,2013-06-17 12:06:00,
2013-06-17 08:13:00,69.3,67.8,30.11,NE,45,0.0,0.7,95,0.00,,,0.04,pywws,2013-06-17 12:13:00,
2013-06-17 08:20:00,69.4,67.9,30.11,NE,45,0.0,0.7,95,0.00,,,0.04,pywws,2013-06-17 12:20:00,
2013-06-17 08:26:00,69.8,68.0,30.11,NE,45,0.0,0.7,94,0.00,,,0.04,pywws,2013-06-17 12:26:00,
2013-06-17 08:31:00,70.3,68.2,30.11,NE,45,0.0,0.7,93,0.01,,,0.05,pywws,2013-06-17 12:31:00,
2013-06-17 08:37:00,71.1,68.9,30.11,East,90,0.0,0.7,93,0.01,,,0.05,pywws,2013-06-17 12:37:00,
2013-06-17 08:43:00,71.1,68.6,30.11,NE,45,0.0,0.0,92,0.01,,,0.05,pywws,2013-06-17 12:43:00,
2013-06-17 08:48:00,70.7,67.9,30.11,NE,45,0.0,0.7,91,0.01,,,0.05,pywws,2013-06-17 12:48:00,
2013-06-17 08:54:00,70.7,67.9,30.11,NE,45,0.0,0.7,91,0.01,,,0.05,pywws,2013-06-17 12:54:00,
2013-06-17 08:59:00,71.1,68.3,30.11,NE,45,0.0,0.0,91,0.01,,,0.05,pywws,2013-06-17 12:59:00,
2013-06-17 09:05:00,72.0,68.5,30.11,East,90,0.0,0.7,89,0.01,,,0.05,pywws,2013-06-17 13:05:00,
2013-06-17 09:11:00,73.0,69.3,30.11,North,0,0.0,0.0,88,0.01,,,0.05,pywws,2013-06-17 13:11:00,
2013-06-17 09:16:00,74.3,70.2,30.11,West,270,0.0,0.0,87,0.01,,,0.05,pywws,2013-06-17 13:16:00,
2013-06-17 09:22:00,76.1,70.9,30.10,NE,45,0.7,1.6,84,0.01,,,0.05,pywws,2013-06-17 13:22:00,
2013-06-17 09:27:00,76.6,70.7,30.11,NE,45,0.0,1.6,82,0.01,,,0.05,pywws,2013-06-17 13:27:00,
2013-06-17 09:33:00,77.7,70.3,30.11,East,90,1.6,3.1,78,0.00,,,0.05,pywws,2013-06-17 13:33:00,
2013-06-17 09:39:00,79.2,70.1,30.11,NE,45,0.0,0.7,74,0.00,,,0.05,pywws,2013-06-17 13:39:00,
2013-06-17 09:44:00,78.3,69.3,30.11,North,0,0.0,0.7,74,0.00,,,0.05,pywws,2013-06-17 13:44:00,
2013-06-17 09:50:00,76.8,69.0,30.10,NE,45,0.0,0.7,77,0.00,,,0.05,pywws,2013-06-17 13:50:00,
2013-06-17 09:55:00,75.6,68.2,30.11,NE,45,0.0,0.0,78,0.00,,,0.05,pywws,2013-06-17 13:55:00,
2013-06-17 10:01:00,75.0,68.4,30.11,NE,45,0.0,0.0,80,0.00,,,0.05,pywws,2013-06-17 14:01:00,
2013-06-17 10:08:00,74.5,68.6,30.10,NE,45,0.0,0.0,82,0.00,,,0.05,pywws,2013-06-17 14:08:00,
2013-06-17 10:14:00,74.7,69.1,30.10,NE,45,0.0,0.0,83,0.00,,,0.05,pywws,2013-06-17 14:14:00,
2013-06-17 10:19:00,75.4,69.1,30.10,NE,45,0.0,0.0,81,0.00,,,0.05,pywws,2013-06-17 14:19:00,
2013-06-17 10:26:00,75.4,68.8,30.10,NE,45,0.0,0.0,80,0.00,,,0.05,pywws,2013-06-17 14:26:00,
2013-06-17 10:31:00,75.6,68.9,30.10,NE,45,0.0,0.0,80,0.00,,,0.05,pywws,2013-06-17 14:31:00,
2013-06-17 10:37:00,75.4,68.8,30.10,NE,45,0.0,0.7,80,0.00,,,0.05,pywws,2013-06-17 14:37:00,
2013-06-17 10:43:00,75.4,68.8,30.10,North,0,0.0,0.0,80,0.00,,,0.05,pywws,2013-06-17 14:43:00,
2013-06-17 10:48:00,75.7,68.8,30.10,North,0,0.0,0.0,79,0.00,,,0.05,pywws,2013-06-17 14:48:00,
2013-06-17 10:55:00,75.6,68.9,30.10,South,180,0.7,2.2,80,0.00,,,0.05,pywws,2013-06-17 14:55:00,
2013-06-17 11:00:00,75.7,69.1,30.10,North,0,0.0,0.7,80,0.00,,,0.05,pywws,2013-06-17 15:00:00,
2013-06-17 11:06:00,75.7,68.8,30.11,North,0,0.0,0.0,79,0.00,,,0.05,pywws,2013-06-17 15:06:00,
2013-06-17 11:11:00,75.9,68.9,30.11,East,90,0.0,0.7,79,0.00,,,0.05,pywws,2013-06-17 15:11:00,
2013-06-17 11:17:00,77.2,69.4,30.11,SW,225,0.0,1.6,77,0.00,,,0.05,pywws,2013-06-17 15:17:00,
2013-06-17 11:23:00,77.4,69.2,30.11,East,90,0.0,0.0,76,0.00,,,0.05,pywws,2013-06-17 15:23:00,
2013-06-17 11:28:00,78.1,69.5,30.12,South,180,1.6,2.2,75,0.00,,,0.05,pywws,2013-06-17 15:28:00,
2013-06-17 11:34:00,79.3,69.5,30.11,NE,45,0.0,1.6,72,0.00,,,0.05,pywws,2013-06-17 15:34:00,
2013-06-17 11:39:00,79.9,69.6,30.11,NE,45,0.0,0.7,71,0.00,,,0.05,pywws,2013-06-17 15:39:00,
2013-06-17 11:45:00,79.3,69.1,30.11,NE,45,0.0,1.6,71,0.00,,,0.05,pywws,2013-06-17 15:45:00,
2013-06-17 11:51:00,79.2,68.9,30.12,NE,45,0.0,0.0,71,0.00,,,0.05,pywws,2013-06-17 15:51:00,
2013-06-17 11:56:00,79.0,69.2,30.11,NE,45,0.7,1.6,72,0.00,,,0.05,pywws,2013-06-17 15:56:00,
2013-06-17 12:02:00,78.4,69.4,30.12,North,0,2.2,3.1,74,0.00,,,0.05,pywws,2013-06-17 16:02:00,
2013-06-17 12:07:00,78.8,69.4,30.11,NE,45,0.7,2.2,73,0.00,,,0.05,pywws,2013-06-17 16:07:00,
2013-06-17 12:13:00,78.6,69.2,30.12,NW,315,1.6,2.2,73,0.00,,,0.05,pywws,2013-06-17 16:13:00,
2013-06-17 12:22:00,78.8,69.0,30.11,North,0,0.0,0.7,72,0.00,,,0.05,pywws,2013-06-17 16:22:00,
2013-06-17 12:27:00,79.9,69.6,30.11,NE,45,1.6,2.2,71,0.00,,,0.05,pywws,2013-06-17 16:27:00,
2013-06-17 12:33:00,81.0,69.4,30.11,North,0,1.6,3.1,68,0.00,,,0.05,pywws,2013-06-17 16:33:00,
2013-06-17 12:39:00,80.2,68.7,30.11,West,270,0.0,0.7,68,0.00,,,0.05,pywws,2013-06-17 16:39:00,
2013-06-17 12:44:00,80.6,68.6,30.11,NE,45,0.7,1.6,67,0.00,,,0.05,pywws,2013-06-17 16:44:00,
2013-06-17 12:50:00,80.8,68.3,30.11,NE,45,1.6,3.1,66,0.00,,,0.05,pywws,2013-06-17 16:50:00,
2013-06-17 12:55:00,80.4,68.9,30.11,North,0,1.6,2.2,68,0.00,,,0.05,pywws,2013-06-17 16:55:00,
2013-06-17 13:01:00,79.9,68.4,30.11,North,0,0.0,1.6,68,0.00,,,0.05,pywws,2013-06-17 17:01:00,
2013-06-17 13:07:00,81.9,69.4,30.11,SW,225,1.6,2.2,66,0.00,,,0.05,pywws,2013-06-17 17:07:00,
2013-06-17 13:12:00,82.8,69.3,30.11,East,90,0.0,1.6,64,0.00,,,0.05,pywws,2013-06-17 17:12:00,
2013-06-17 13:18:00,83.7,69.7,30.11,NE,45,0.7,1.6,63,0.00,,,0.05,pywws,2013-06-17 17:18:00,
2013-06-17 13:23:00,82.8,68.4,30.11,North,0,0.0,1.6,62,0.00,,,0.05,pywws,2013-06-17 17:23:00,
2013-06-17 13:29:00,81.9,68.5,30.11,North,0,0.0,1.6,64,0.00,,,0.05,pywws,2013-06-17 17:29:00,
2013-06-17 13:35:00,82.0,68.6,30.11,North,0,1.6,2.2,64,0.00,,,0.05,pywws,2013-06-17 17:35:00,
2013-06-17 13:40:00,81.7,68.3,30.11,NE,45,1.6,2.2,64,0.00,,,0.05,pywws,2013-06-17 17:40:00,
2013-06-17 13:46:00,81.5,68.1,30.11,NE,45,0.7,1.6,64,0.00,,,0.05,pywws,2013-06-17 17:46:00,
2013-06-17 13:51:00,81.3,68.0,30.10,NE,45,0.7,1.6,64,0.00,,,0.05,pywws,2013-06-17 17:51:00,
2013-06-17 13:57:00,81.7,68.3,30.10,North,0,0.0,1.6,64,0.00,,,0.05,pywws,2013-06-17 17:57:00,
2013-06-17 14:06:00,81.9,68.0,30.10,North,0,0.0,1.6,63,0.00,,,0.05,pywws,2013-06-17 18:06:00,
2013-06-17 14:11:00,79.3,67.0,30.10,North,0,0.7,1.6,66,0.01,,,0.06,pywws,2013-06-17 18:11:00,
2013-06-17 14:17:00,77.2,67.8,30.10,NE,45,0.7,1.6,73,0.01,,,0.06,pywws,2013-06-17 18:17:00,
2013-06-17 14:23:00,75.4,68.8,30.10,NE,45,0.0,0.7,80,0.05,,,0.09,pywws,2013-06-17 18:23:00,
2013-06-17 14:28:00,74.1,69.3,30.10,SW,225,0.7,1.6,85,0.06,,,0.11,pywws,2013-06-17 18:28:00,
2013-06-17 14:34:00,74.1,69.7,30.09,North,0,0.0,0.7,86,0.06,,,0.11,pywws,2013-06-17 18:34:00,
2013-06-17 14:39:00,75.0,71.2,30.09,NE,45,0.0,0.0,88,0.06,,,0.11,pywws,2013-06-17 18:39:00,
2013-06-17 14:45:00,76.3,72.1,30.09,NE,45,0.0,0.7,87,0.06,,,0.11,pywws,2013-06-17 18:45:00,
2013-06-17 14:51:00,77.2,72.3,30.09,SE,135,0.7,1.6,85,0.06,,,0.11,pywws,2013-06-17 18:51:00,
2013-06-17 14:56:00,77.7,72.5,30.09,West,270,0.0,0.0,84,0.06,,,0.11,pywws,2013-06-17 18:56:00,
2013-06-17 15:02:00,78.1,72.5,30.09,West,270,0.0,0.0,83,0.06,,,0.11,pywws,2013-06-17 19:02:00,
2013-06-17 15:07:00,79.9,73.5,30.08,NE,45,0.7,1.6,81,0.06,,,0.11,pywws,2013-06-17 19:07:00,
2013-06-17 15:13:00,79.7,71.8,30.08,NW,315,0.0,0.0,77,0.06,,,0.11,pywws,2013-06-17 19:13:00,
2013-06-17 15:19:00,81.7,72.2,30.07,North,0,0.0,1.6,73,0.02,,,0.11,pywws,2013-06-17 19:19:00,
2013-06-17 15:24:00,83.1,71.0,30.07,North,0,0.0,1.6,67,0.00,,,0.11,pywws,2013-06-17 19:24:00,
2013-06-17 15:30:00,82.4,69.9,30.08,NE,45,0.7,2.2,66,0.00,,,0.11,pywws,2013-06-17 19:30:00,
2013-06-17 15:36:00,82.0,70.0,30.07,NE,45,0.7,1.6,67,0.00,,,0.11,pywws,2013-06-17 19:36:00,
2013-06-17 15:42:00,82.0,70.0,30.06,NE,45,0.0,1.6,67,0.00,,,0.11,pywws,2013-06-17 19:42:00,
2013-06-17 15:47:00,85.8,71.7,30.06,NE,45,0.7,1.6,63,0.00,,,0.11,pywws,2013-06-17 19:47:00,
2013-06-17 15:53:00,86.9,68.8,30.06,ENE,68,0.7,2.2,55,0.00,,,0.11,pywws,2013-06-17 19:53:00,
2013-06-17 15:59:00,87.3,69.1,30.05,WSW,248,0.7,1.6,55,0.00,,,0.11,pywws,2013-06-17 19:59:00,
2013-06-17 16:04:00,87.3,69.1,30.05,WSW,248,0.7,1.6,55,0.00,,,0.11,pywws,2013-06-17 20:04:00,
2013-06-17 16:10:00,88.9,69.5,30.05,NE,45,0.0,0.7,53,0.01,,,0.12,pywws,2013-06-17 20:10:00,
2013-06-17 16:15:00,89.4,69.4,30.05,NE,45,0.7,1.6,52,0.01,,,0.12,pywws,2013-06-17 20:15:00,
2013-06-17 16:21:00,88.9,68.4,30.05,NE,45,0.0,0.7,51,0.01,,,0.12,pywws,2013-06-17 20:21:00,
2013-06-17 16:27:00,88.7,67.6,30.04,SW,225,0.7,2.2,50,0.01,,,0.12,pywws,2013-06-17 20:27:00,
2013-06-17 16:32:00,88.5,68.0,30.04,West,270,0.7,1.6,51,0.01,,,0.12,pywws,2013-06-17 20:32:00,
2013-06-17 16:38:00,88.5,68.0,30.04,SE,135,0.7,2.2,51,0.01,,,0.12,pywws,2013-06-17 20:38:00,
2013-06-17 16:43:00,88.9,68.9,30.03,NE,45,0.7,1.6,52,0.01,,,0.12,pywws,2013-06-17 20:43:00,
2013-06-17 16:49:00,87.3,68.0,30.03,NE,45,0.7,1.6,53,0.01,,,0.12,pywws,2013-06-17 20:49:00,
2013-06-17 16:55:00,87.8,67.9,30.03,NE,45,0.7,1.6,52,0.01,,,0.12,pywws,2013-06-17 20:55:00,
2013-06-17 17:00:00,87.3,68.0,30.03,NE,45,0.7,1.6,53,0.01,,,0.12,pywws,2013-06-17 21:00:00,
2013-06-17 17:06:00,86.2,67.0,30.03,NE,45,0.7,1.6,53,0.01,,,0.12,pywws,2013-06-17 21:06:00,
2013-06-17 17:11:00,84.7,67.3,30.03,South,180,0.0,0.7,56,0.00,,,0.12,pywws,2013-06-17 21:11:00,
2013-06-17 17:17:00,84.4,67.5,30.03,East,90,0.0,2.2,57,0.00,,,0.12,pywws,2013-06-17 21:17:00,
2013-06-17 17:23:00,84.4,66.9,30.03,SE,135,0.0,0.7,56,0.00,,,0.12,pywws,2013-06-17 21:23:00,
2013-06-17 17:28:00,84.6,67.6,30.03,East,90,0.0,0.7,57,0.00,,,0.12,pywws,2013-06-17 21:28:00,
2013-06-17 17:34:00,85.1,67.6,30.04,East,90,0.0,0.7,56,0.00,,,0.12,pywws,2013-06-17 21:34:00,
2013-06-17 17:39:00,84.6,67.1,30.04,SE,135,0.7,1.6,56,0.00,,,0.12,pywws,2013-06-17 21:39:00,
2013-06-17 17:45:00,84.0,66.1,30.04,East,90,0.0,0.7,55,0.00,,,0.12,pywws,2013-06-17 21:45:00,
2013-06-17 17:51:00,83.3,67.0,30.04,ESE,112,0.0,0.7,58,0.00,,,0.12,pywws,2013-06-17 21:51:00,
2013-06-17 17:56:00,83.5,67.1,30.04,South,180,0.0,1.6,58,0.00,,,0.12,pywws,2013-06-17 21:56:00,
2013-06-17 18:02:00,83.5,67.6,30.04,East,90,0.7,1.6,59,0.00,,,0.12,pywws,2013-06-17 22:02:00,
2013-06-17 18:07:00,82.9,67.1,30.04,SE,135,0.7,2.2,59,0.00,,,0.12,pywws,2013-06-17 22:07:00,
2013-06-17 18:13:00,84.2,67.3,30.04,NE,45,0.7,1.6,57,0.00,,,0.12,pywws,2013-06-17 22:13:00,
2013-06-17 18:19:00,83.8,68.0,30.04,South,180,0.7,2.2,59,0.00,,,0.12,pywws,2013-06-17 22:19:00,
2013-06-17 18:24:00,83.3,67.4,30.04,NE,45,0.0,0.0,59,0.00,,,0.12,pywws,2013-06-17 22:24:00,
2013-06-17 18:31:00,82.4,67.6,30.04,East,90,0.0,0.0,61,0.00,,,0.12,pywws,2013-06-17 22:31:00,
2013-06-17 18:36:00,81.3,67.5,30.04,NE,45,0.0,0.0,63,0.00,,,0.12,pywws,2013-06-17 22:36:00,
2013-06-17 18:42:00,79.9,67.0,30.04,NE,45,0.0,0.0,65,0.00,,,0.12,pywws,2013-06-17 22:42:00,
2013-06-17 18:47:00,79.0,66.6,30.04,NE,45,0.0,0.0,66,0.00,,,0.12,pywws,2013-06-17 22:47:00,
2013-06-17 18:54:00,78.1,67.1,30.04,North,0,0.0,0.0,69,0.00,,,0.12,pywws,2013-06-17 22:54:00,
2013-06-17 18:59:00,77.4,67.2,30.04,West,270,0.7,1.6,71,0.00,,,0.12,pywws,2013-06-17 22:59:00,
2013-06-17 19:05:00,76.1,68.4,30.04,SW,225,0.7,1.6,77,0.01,,,0.13,pywws,2013-06-17 23:05:00,
2013-06-17 19:11:00,75.2,68.6,30.05,SE,135,3.1,5.4,80,0.01,,,0.13,pywws,2013-06-17 23:11:00,
2013-06-17 19:16:00,73.6,68.4,30.06,South,180,2.2,5.4,84,0.05,,,0.17,pywws,2013-06-17 23:16:00,
2013-06-17 19:22:00,72.3,67.5,30.06,South,180,0.7,1.6,85,0.06,,,0.18,pywws,2013-06-17 23:22:00,
2013-06-17 19:27:00,72.1,67.7,30.06,West,270,0.0,0.0,86,0.07,,,0.19,pywws,2013-06-17 23:27:00,
2013-06-17 19:33:00,72.5,68.1,30.05,West,270,0.0,0.0,86,0.07,,,0.19,pywws,2013-06-17 23:33:00,
2013-06-17 19:39:00,72.1,68.0,30.05,NE,45,0.0,0.0,87,0.07,,,0.19,pywws,2013-06-17 23:39:00,
2013-06-17 19:48:00,72.0,68.2,30.05,NE,45,0.0,0.0,88,0.07,,,0.19,pywws,2013-06-17 23:48:00,
2013-06-17 19:54:00,71.8,68.4,30.05,NE,45,0.0,0.0,89,0.07,,,0.19,pywws,2013-06-17 23:54:00,
2013-06-17 20:01:00,71.6,68.5,30.05,NE,45,0.0,0.7,90,0.07,,,0.19,pywws,2013-06-18 00:01:00,
2013-06-17 20:07:00,72.1,69.0,30.04,South,180,0.0,0.0,90,0.06,,,0.19,pywws,2013-06-18 00:07:00,
2013-06-17 20:12:00,72.1,69.0,30.04,NW,315,0.7,1.6,90,0.06,,,0.19,pywws,2013-06-18 00:12:00,
2013-06-17 20:19:00,71.6,68.5,30.04,North,0,0.0,0.0,90,0.01,,,0.19,pywws,2013-06-18 00:19:00,
2013-06-17 20:25:00,71.1,68.6,30.05,East,90,0.0,0.0,92,0.00,,,0.19,pywws,2013-06-18 00:25:00,
2013-06-17 20:31:00,70.7,68.3,30.04,East,90,0.0,0.0,92,0.00,,,0.19,pywws,2013-06-18 00:31:00,
2013-06-17 20:36:00,70.5,68.4,30.04,NE,45,0.0,0.0,93,0.00,,,0.19,pywws,2013-06-18 00:36:00,
2013-06-17 20:42:00,70.3,68.2,30.04,South,180,0.0,0.0,93,0.00,,,0.19,pywws,2013-06-18 00:42:00,
2013-06-17 20:47:00,70.2,67.7,30.04,East,90,0.0,0.7,92,0.00,,,0.19,pywws,2013-06-18 00:47:00,
2013-06-17 20:53:00,69.6,67.5,30.04,SE,135,0.0,0.7,93,0.00,,,0.19,pywws,2013-06-18 00:53:00,
2013-06-17 20:59:00,69.4,67.3,30.04,East,90,1.6,2.2,93,0.00,,,0.19,pywws,2013-06-18 00:59:00,
2013-06-17 21:04:00,69.1,67.0,30.04,West,270,0.7,1.6,93,0.00,,,0.19,pywws,2013-06-18 01:04:00,
2013-06-17 21:10:00,68.7,66.6,30.04,SE,135,0.0,0.7,93,0.00,,,0.19,pywws,2013-06-18 01:10:00,
2013-06-17 21:15:00,68.5,66.4,30.04,North,0,0.0,0.7,93,0.00,,,0.19,pywws,2013-06-18 01:15:00,
2013-06-17 21:21:00,68.2,66.1,30.04,East,90,0.0,0.0,93,0.00,,,0.19,pywws,2013-06-18 01:21:00,
2013-06-17 21:26:00,68.2,66.1,30.05,South,180,0.0,0.0,93,0.00,,,0.19,pywws,2013-06-18 01:26:00,
2013-06-17 21:32:00,68.2,66.1,30.04,East,90,0.0,0.7,93,0.00,,,0.19,pywws,2013-06-18 01:32:00,
2013-06-17 21:38:00,68.0,66.2,30.04,East,90,0.7,2.2,94,0.00,,,0.19,pywws,2013-06-18 01:38:00,
2013-06-17 21:43:00,67.8,66.3,30.05,East,90,0.0,0.7,95,0.00,,,0.19,pywws,2013-06-18 01:43:00,
2013-06-17 21:50:00,67.8,66.3,30.04,NE,45,0.0,0.0,95,0.00,,,0.19,pywws,2013-06-18 01:50:00,
2013-06-17 21:58:00,67.6,66.5,30.04,NE,45,0.0,0.0,96,0.00,,,0.19,pywws,2013-06-18 01:58:00,
2013-06-17 22:04:00,67.5,66.3,30.04,South,180,0.0,0.0,96,0.00,,,0.19,pywws,2013-06-18 02:04:00,
2013-06-17 22:10:00,67.8,66.6,30.04,SW,225,0.7,1.6,96,0.00,,,0.19,pywws,2013-06-18 02:10:00,
2013-06-17 22:15:00,67.8,66.6,30.04,SW,225,0.0,0.7,96,0.00,,,0.19,pywws,2013-06-18 02:15:00,
2013-06-17 22:21:00,67.8,66.6,30.05,East,90,0.0,0.0,96,0.00,,,0.19,pywws,2013-06-18 02:21:00,
2013-06-17 22:26:00,67.8,66.6,30.05,East,90,0.0,1.6,96,0.00,,,0.19,pywws,2013-06-18 02:26:00,
2013-06-17 22:32:00,67.5,66.3,30.05,SE,135,0.7,2.2,96,0.00,,,0.19,pywws,2013-06-18 02:32:00,
2013-06-17 22:38:00,67.5,66.3,30.05,SE,135,0.7,2.2,96,0.00,,,0.19,pywws,2013-06-18 02:38:00,
2013-06-17 22:43:00,67.8,66.6,30.05,SE,135,0.0,0.7,96,0.00,,,0.19,pywws,2013-06-18 02:43:00,
2013-06-17 22:49:00,67.5,66.3,30.05,NE,45,0.7,1.6,96,0.00,,,0.19,pywws,2013-06-18 02:49:00,
2013-06-17 22:54:00,67.5,66.3,30.05,ESE,112,1.6,2.2,96,0.00,,,0.19,pywws,2013-06-18 02:54:00,
2013-06-17 23:00:00,67.5,66.3,30.06,South,180,1.6,3.8,96,0.00,,,0.19,pywws,2013-06-18 03:00:00,
2013-06-17 23:06:00,67.5,66.3,30.05,South,180,2.2,3.8,96,0.00,,,0.19,pywws,2013-06-18 03:06:00,
2013-06-17 23:12:00,67.5,66.3,30.05,South,180,0.7,1.6,96,0.00,,,0.19,pywws,2013-06-18 03:12:00,
2013-06-17 23:18:00,67.5,66.3,30.05,East,90,0.0,1.6,96,0.00,,,0.19,pywws,2013-06-18 03:18:00,
2013-06-17 23:23:00,67.5,66.3,30.05,SW,225,0.0,0.7,96,0.00,,,0.19,pywws,2013-06-18 03:23:00,
2013-06-17 23:29:00,67.3,66.1,30.04,South,180,0.0,1.6,96,0.00,,,0.19,pywws,2013-06-18 03:29:00,
2013-06-17 23:34:00,67.3,66.1,30.04,East,90,0.7,1.6,96,0.00,,,0.19,pywws,2013-06-18 03:34:00,
2013-06-17 23:40:00,67.1,65.9,30.04,NE,45,0.0,1.6,96,0.00,,,0.19,pywws,2013-06-18 03:40:00,
2013-06-17 23:46:00,66.9,65.7,30.04,NE,45,0.0,1.6,96,0.00,,,0.19,pywws,2013-06-18 03:46:00,
2013-06-17 23:51:00,66.9,66.0,30.04,North,0,0.0,0.7,97,0.00,,,0.19,pywws,2013-06-18 03:51:00,
2013-06-17 23:57:00,66.9,66.0,30.03,SW,225,0.0,0.7,97,0.00,,,0.19,pywws,2013-06-18 03:57:00,